Location: Eastchurch
(51.4000°N, 0.8667°E)
Time: 23:39:16
(UTC+00:00)

Daily predictions for brighter satellites

Satellite Brightness Start Highest point End
(mag) Time Altitude Azimuth Time Altitude Azimuth Time Altitude Azimuth
Landsat 7 3.8 16:55:03 10° SSE 16:59:38 59° ENE 17:04:13 10° N
Cosmos 1328 Rocket 3.6 16:57:12 10° S 17:01:34 86° ESE 17:06:00 10° NNE
Cosmos 1697 Rocket 3.6 16:56:44 10° NNW 17:01:35 28° NE 17:06:25 10° E
CZ-2D R/B 3.3 17:02:18 10° SE 17:05:12 35° ENE 17:08:06 10° N
Meteor 1-21 4.5 17:00:37 10° SSE 17:05:59 49° E 17:11:21 10° NNE
NOSS 2-1 (D) 3.8 17:04:48 10° NNW 17:07:41 31° NE 17:11:10 10° E
SMAP 3.0 17:03:13 10° SSE 17:07:53 80° ENE 17:12:34 10° NNW
BREEZE-M DEB (TANK) 3.6 17:02:09 10° WSW 17:08:21 69° S 17:11:57 10° E
Cosmos 1833 Rocket 4.2 17:08:17 10° SE 17:11:37 16° E 17:14:59 10° ENE
SL-16 R/B 4.2 17:10:16 10° N 17:12:05 11° NNE 17:13:53 10° NNE
Cosmos 2181 Rocket 4.2 17:06:56 10° SSE 17:12:52 52° E 17:18:55 10° NNE
SAR-Lupe-4 4.2 17:10:03 10° SE 17:13:17 33° ENE 17:16:34 10° N
Cosmos 1603 3.8 17:08:35 10° SSW 17:14:09 64° ESE 17:19:43 10° NE
IRS-1C 4.1 17:09:12 10° SSE 17:14:27 65° ENE 17:19:45 10° N
Cosmos 2056 Rocket 4.1 17:09:43 10° SW 17:14:45 57° WNW 17:19:48 10° NNE
Cosmos 968 Rocket 4.1 17:10:51 10° NNW 17:15:56 62° WSW 17:20:57 10° S
USA 267 3.5 17:10:29 10° ENE 17:16:50 55° N 17:23:12 10° WNW
Cosmos 2366 rocket 4.1 17:11:04 10° N 17:17:27 88° W 17:23:50 10° S
BREEZE-M DEB (TANK) 3.7 17:16:24 10° W 17:18:47 38° S 17:25:23 10° SE
ARIANE 5 R/B 2.5 17:19:06 10° SSE 17:24:19 78° ENE 17:29:32 10° NNW
YAOGAN 1 3.2 17:22:41 10° SE 17:26:26 31° ENE 17:30:12 10° N
Cosmos 2218 Rocket 4.2 17:21:18 10° NNW 17:27:45 82° W 17:34:07 10° S
ATLAS 5 CENTAUR R/B 2.1 17:26:36 10° W 17:29:23 31° NNW 17:32:28 10° NNE
Okean 2 3.5 17:26:40 10° SSE 17:30:20 44° E 17:34:02 10° NNE
SKYMED 2 4.4 17:26:48 10° NNE 17:30:41 30° E 17:34:32 10° SSE
SL-16 R/B 2.9 17:24:35 10° NNE 17:30:43 67° WNW 17:36:48 10° SSW
Cosmos 292 Rocket 3.8 17:26:19 10° NNW 17:31:03 85° WSW 17:35:44 10° SSE
Cosmos 1943 3.8 17:26:03 10° SW 17:31:35 56° NW 17:37:12 10° NNE
Cosmos 1953 3.0 17:28:16 10° NNW 17:31:54 53° W 17:35:30 10° S
Cosmos 1515 Rocket 3.5 17:27:42 10° S 17:32:07 76° E 17:36:34 10° NNE
MOS 1 Rocket 3.6 17:27:02 10° SSE 17:32:13 81° WSW 17:37:10 10° NNW
Cosmos 1703 2.9 17:30:21 10° SSW 17:33:39 79° W 17:36:59 10° N
Meteor 2-15 4.4 17:32:40 10° N 17:38:51 85° E 17:44:58 10° S
Cosmos 1331 Rocket 4.0 17:36:30 10° SSW 17:41:39 85° WNW 17:46:50 10° NNE
ISS -3.7 17:38:50 10° WSW 17:42:10 72° SSE 17:44:16 21° E
COSMO-SKYMED 1 3.5 17:40:52 14° NE 17:43:30 25° E 17:46:55 10° SSE
RESURS DK-1 2.3 17:43:07 10° SSW 17:47:04 65° ESE 17:50:11 16° NE
Okean 3 3.6 17:43:28 10° SSE 17:47:21 47° E 17:51:14 10° NNE
CZ-4 R/B 4.2 17:45:51 10° SSE 17:49:47 72° ENE 17:53:47 10° N
USA 276 1.8 17:47:50 10° WSW 17:50:06 55° S 17:51:03 30° ESE
Cosmos 1656 3.9 17:45:52 10° NNW 17:51:28 72° WSW 17:56:57 10° SSE
SJ-6F 4.4 17:48:01 10° SSE 17:52:04 84° WSW 17:56:08 10° NNW
Nadezhda 3 Rocket 4.0 17:46:33 10° SSE 17:52:31 55° E 17:58:32 10° NNE
Cosmos 2237 Rocket 4.4 17:50:01 10° NW 17:52:38 13° NNW 17:55:15 10° N
ATLAS 3B R/B 4.0 17:47:50 10° WNW 17:54:51 33° N 18:00:15 16° NE
Cosmos 1302 Rocket 4.0 17:50:30 10° S 17:55:40 61° ESE 18:00:38 11° NNE
NOSS 3-4 (A) 3.3 17:50:49 10° SW 17:56:09 75° NW 18:01:08 15° NE
Cosmos 1733 Rocket 3.5 17:52:06 10° N 17:56:11 37° ENE 18:00:13 10° SE
NOSS 3-4 (C) 3.3 17:50:58 10° SW 17:56:20 76° NW 18:01:20 15° NE
Cosmos 2360 4.4 17:51:25 10° NNW 17:57:09 78° WSW 18:02:51 10° SSE
IRS-P3 4.2 17:52:33 10° SSE 17:57:52 81° WSW 18:03:13 10° NNW
SL-16 R/B 4.1 17:54:33 10° W 17:58:53 22° NW 18:03:14 10° NNE
Cosmos 1933 Rocket 4.0 17:55:33 10° NNW 17:59:55 65° W 18:04:13 10° S
Cosmos 2322 Rocket 4.1 17:58:25 10° N 18:00:45 12° NNE 18:02:06 12° NNE
Cosmos 1340 Rocket 3.1 17:56:58 10° NNW 18:00:46 65° W 18:04:34 10° S
SJ-7 4.3 17:57:12 10° SE 18:00:52 49° ENE 18:04:32 10° N
Radarsat Rocket 3.9 17:56:59 10° SE 18:02:57 64° ENE 18:08:42 10° NNW
Cosmos 2333 Rocket 3.9 18:01:19 10° NNW 18:04:32 15° NNE 18:05:40 14° NE
Resurs 01 Rocket 2.1 18:03:12 10° SE 18:07:12 36° ENE 18:11:13 10° N
NOSS 3-1 (A) 4.1 18:02:22 10° NW 18:08:38 48° NNE 18:13:44 21° E
CARTOSAT-1 3.7 18:05:59 10° SE 18:10:01 47° ENE 18:14:04 10° N
Cosmos 2228 Rocket 4.3 18:06:40 10° SE 18:09:10 22° ESE 18:09:10 22° ESE
USA 59 Rocket -0.2 18:12:00 10° NW 18:15:20 71° SW 18:19:40 10° SE
COSMOS 2455 2.8 18:10:25 10° NW 18:16:25 62° NE 18:21:12 16° SE
SPOT 1/Viking Rocket 4.0 18:13:02 10° S 18:18:08 63° WSW 18:23:15 10° NNW
PSLV R/B 3.3 18:14:40 10° SSE 18:18:49 69° ENE 18:22:59 10° N
Cosmos 1992 Rocket 4.0 18:14:51 10° S 18:19:53 55° ESE 18:22:50 24° NE
Cosmos 1452 Rocket 4.1 18:15:00 10° SW 18:20:10 57° WNW 18:25:23 10° NNE
NOSS 3-1 (C) 3.9 18:14:38 10° NW 18:21:23 78° NE 18:29:57 10° SE
USA 215 4.3 18:21:41 23° ESE 18:23:21 26° SE 18:28:37 10° S
Cosmos 1980 Rocket 2.5 18:18:09 10° NNW 18:23:31 44° NE 18:25:37 31° E
Cosmos 2369 4.5 18:19:23 10° NNW 18:24:23 30° NE 18:25:06 29° ENE
Cosmos 1486 Rocket 4.2 18:19:19 10° NNW 18:24:28 47° ENE 18:26:50 28° ESE
NOAA 6 3.9 18:19:49 10° SSE 18:24:54 73° ENE 18:30:02 10° NNW
Cosmos 1869 Rocket 4.5 18:22:27 10° NNW 18:26:42 49° W 18:30:53 10° SSW
NOSS 2-1 (E) 3.2 18:24:21 10° NW 18:27:40 77° SW 18:29:59 24° SE
NOSS 2-1 (C) 3.4 18:25:19 10° NW 18:28:37 66° SW 18:31:37 18° SSE
YAOGAN 3 4.4 18:24:40 10° SSE 18:28:50 64° ENE 18:33:02 10° N
IRAS Rocket 4.1 18:26:22 10° SSE 18:31:52 70° ENE 18:37:26 10° NNW
CSL-04 Rocket 4.4 18:35:34 32° NE 18:35:34 32° NE 18:39:39 10° N
USA 305 4.1 18:33:28 10° SSW 18:35:59 25° SSE 18:35:59 25° SSE
CZ-2D R/B 3.9 18:33:22 10° S 18:37:08 56° WSW 18:40:54 10° NNW
Cosmos 1605 Rocket 4.0 18:31:55 10° N 18:38:16 60° ENE 18:44:31 10° SSE
Resurs 1-3 4.3 18:36:31 10° S 18:40:44 53° W 18:44:58 10° NNW
Cosmos 2219 Rocket 4.2 18:39:13 10° N 18:41:41 13° NNE 18:41:41 13° NNE
Spot 4 Rocket 4.5 18:40:13 10° S 18:45:17 62° WSW 18:50:23 10° NNW
Cosmos 1697 Rocket 2.8 18:40:26 10° NNW 18:46:06 74° WSW 18:51:45 10° SSE
Cosmos 1339 Rocket 4.5 18:41:35 10° SSW 18:47:44 83° W 18:53:52 10° N
Cosmos 2360 Rocket 4.0 18:49:30 10° N 18:52:15 17° NNE 18:52:15 17° NNE
Cosmos 1833 Rocket 2.6 18:49:02 10° SSW 18:54:40 84° ESE 18:56:54 39° NNE
Cosmos 1777 Rocket 3.9 18:49:37 10° NNW 18:54:47 63° ENE 18:55:18 60° E
Cosmos 1862 Rocket 3.4 18:50:33 10° S 18:54:59 85° E 18:55:44 61° NNE
SL-16 R/B 3.5 18:53:38 10° NNW 18:57:12 24° NNE 18:57:12 24° NNE
USA 267 3.2 18:57:15 44° E 18:59:33 77° NNE 19:06:07 10° WNW
Meteor 1-24 Rocket 4.2 18:54:57 10° SSE 18:59:07 43° SE 18:59:07 43° SE
Cosmos 909 Rocket 4.2 18:54:03 10° SSW 19:01:27 65° ESE 19:03:16 47° ENE
YAOGAN 1 4.2 18:58:22 10° SSW 19:02:14 34° W 19:06:08 10° NNW
Okean 1-7 3.6 19:02:13 10° S 19:05:06 44° SSW 19:05:06 44° SSW
Cosmos 1707 Rocket 3.6 19:05:58 10° SSW 19:10:16 72° WNW 19:10:17 72° WNW
ATLAS 5 CENTAUR R/B 3.7 19:10:57 10° NW 19:11:51 13° NNW 19:11:51 13° NNW
COSMO-SKYMED 1 3.7 19:17:10 26° NNW 19:18:55 39° WNW 19:22:45 10° SW
ISS -1.6 19:15:36 10° W 19:17:13 26° W 19:17:13 26° W
BREEZE-M DEB (TANK) 3.5 19:16:40 10° WSW 19:19:37 70° SSW 19:19:37 70° SSW
RESURS DK-1 4.4 19:21:46 10° W 19:24:51 21° NW 19:25:28 20° NNW
Cosmos 1153 Rocket 4.3 19:26:26 10° N 19:32:50 83° E 19:32:57 83° ESE
Cosmos 1503 Rocket 4.3 19:31:15 10° NNW 19:35:38 61° NW 19:35:38 61° NW
Resurs 01 Rocket 3.4 19:39:46 10° SSW 19:43:37 30° W 19:47:29 10° NNW
Cosmos 2322 Rocket 4.0 19:41:44 10° NNW 19:43:54 20° N 19:43:54 20° N
ATLAS 3B R/B 3.5 19:40:09 10° NW 19:47:30 42° NNE 19:47:30 42° NNE
Cosmos 2333 Rocket 3.8 19:45:05 10° NNW 19:47:41 25° N 19:47:41 25° N
NOSS 3-1 (A) 4.1 19:53:00 10° NW 19:59:58 70° SW 20:01:10 61° S
COSMOS 2455 4.3 19:56:46 10° NW 20:02:02 33° WSW 20:04:25 24° SSW
USA 215 3.8 20:09:03 48° SW 20:09:03 48° SW 20:13:40 10° SW
Cosmos 1980 Rocket 3.3 20:02:16 10° NW 20:07:26 40° WSW 20:07:26 40° WSW
Cosmos 2360 Rocket 4.5 20:32:53 10° NNW 20:34:00 16° NNW 20:34:00 16° NNW
USA 267 4.3 20:44:35 40° W 20:44:35 40° W 20:49:10 10° WNW
SL-16 R/B 4.3 20:37:25 10° NNW 20:39:03 20° NNW 20:39:03 20° NNW
